Torna al catalogo

COSMOS 2251 DEB

AttivoLEO
NORAD 34883·DEBRIS·🇷🇺 Russia

Lanciato Jun 16, 1993 da Plesetsk Cosmodrome

Loading…

Prossimi Passaggi (prossime 24 ore)

TLE

AggiornatoSource: Space-Track

Epoca: Sep 14, 2026, 00:55 UTC

1 34883U 93036ACW 26257.03821283  .00011321  00000-0  23457-2 0  9997
2 34883  74.1954 266.4927 0084272   1.2421 358.8937 14.58058622904442

Traccia COSMOS 2251 DEB in tempo reale con AllMySat

Download on the App Store